sat.trackr.live / text

‹ back to catalog

CYGFM02

NORAD 41886 · 2016-078C

PAYLOAD INACTIVE UNKNOWN

§ Identity

Operator
Country
US
Launch date
2016-12-15
Launch site
ERAS
Launch vehicle
Mass (kg)
RCS (m²)
0.22

Purposes: earth_obs

External: N2YO · Heavens-Above · Gunter

§ Orbital elements

Epoch: 2026-09-20T05:05:59.758944Z

Period
91.61 min
Inclination
34.9398°
Eccentricity
0.0003643
Mean motion
15.71947592 rev/d
Perigee alt
350.9 km
Apogee alt
355.8 km
Semi-major
6,731.5 km
B*
2.8938e-4
RAAN
302.7970°
Arg perigee
60.3577°
Mean anomaly
299.7515°
Rev number
54,409

§ Raw data

CYGFM021 41886U 16078C   26263.21249721  .00039319  00000+0  28938-3 0  99932 41886  34.9398 302.7970 0003643  60.3577 299.7515 15.71947592544097

JSON: /api/v1/satellites/41886 · /tle

For live sub-satellite position, see the globe view (requires WebGL).

§ Visibility from observer

Set your observer location to see the next 7 days of passes ≥ 10°. The values pass through the URL so the page stays shareable.

No JS? Fill the form by hand. The geolocation button needs JavaScript.